Location: Dakoming
(43.5975°N, 104.0727°W)
Time: 13:34:07
(UTC+00:00)

ISS - Visible Passes

Search period start: 24 January 2022 00:00
Search period end: 03 February 2022 00:00
Orbit: 413 x 422 km, 51.6° (Epoch: 24 January)

Date Brightness Start Highest point End Pass type
(mag) Time Alt. Az. Time Alt. Az. Time Alt. Az.
24 Jan -2.0 01:48:54 10° WNW 01:51:34 23° NNW 01:51:34 23° NNW visible
25 Jan -2.2 01:00:33 10° WNW 01:03:27 27° NNW 01:05:32 15° NE visible
25 Jan -0.5 02:38:23 10° NW 02:38:27 10° NW 02:38:27 10° NW visible
26 Jan -1.8 01:50:11 10° NW 01:52:24 20° N 01:52:24 20° N visible
27 Jan -1.9 01:01:53 10° WNW 01:04:30 21° N 01:06:20 14° NE visible
27 Jan -0.5 02:39:10 10° NW 02:39:15 10° NW 02:39:15 10° NW visible
28 Jan -1.9 01:51:07 10° NW 01:53:11 21° N 01:53:11 21° N visible
29 Jan -2.0 01:02:58 10° NW 01:05:32 20° N 01:07:09 15° NE visible
29 Jan -0.6 02:39:43 10° NW 02:40:04 12° NW 02:40:04 12° NW visible
30 Jan -2.4 01:51:43 10° NW 01:54:04 28° N 01:54:04 28° N visible
31 Jan -2.4 01:03:40 10° NW 01:06:30 25° NNE 01:08:06 18° NE visible
31 Jan -0.9 02:40:15 10° WNW 02:41:02 16° WNW 02:41:02 16° WNW visible
01 Feb -3.5 01:52:11 10° NW 01:55:10 55° N 01:55:10 55° N visible
02 Feb -3.2 01:04:08 10° NW 01:07:18 40° NNE 01:09:23 18° E visible
02 Feb -1.1 02:40:59 10° WNW 02:42:20 20° W 02:42:20 20° W visible
